[[{"header":{"parameterUnit":"m.s-1","parameterCategory":2,"la1":30.2991,"la2":30.254,"lo1":-89.0895,"lo2":-89.0444,"dy":0.0017,"dx":0.0017,"nx":28,"ny":28,"refTime":"2024-03-20T03:00:00:Z","depth":"0","parameterNumber":2,"parameterNumberName":"U-component_of_CURRENTS"},"data":[0,0,0,0,0,0,0,0,0,0,0,0,0,0,0,0,0,0,0,0,0,0,0,0,0,0,0,0,0,0,0,0,0,0,0,0,0,0,0,0,0,0,0,0,0,0,0,0,0,0,0,0,0,0,0,0,0,0,-0.2254,-0.2255,0,-0.2401,-0.2403,-0.2405,-0.2465,-0.2464,-0.2463,-0.2462,-0.2456,-0.2457,-0.2457,0,0,0,0,0,0,0,0,0,0,0,0,0,-0.2129,-0.2131,-0.2254,-0.2255,-0.2257,-0.2401,-0.2403,-0.2406,-0.2465,-0.2464,-0.2463,-0.2462,-0.2456,-0.2456,-0.2457,0,0,0,0,0,0,0,0,0,0,0,0,0,-0.2225,-0.2131,-0.2253,-0.23,-0.2305,-0.24,-0.2403,-0.2406,-0.2465,-0.2464,-0.2463,-0.2462,-0.2456,-0.2456,-0.2457,-0.2486,0,0,-0.246,-0.246,0,0,0,0,0,0,0,0,-0.2219,-0.223,-0.2292,-0.2297,-0.2303,-0.2409,-0.2357,-0.2424,-0.2465,-0.2409,-0.2462,-0.2461,-0.2424,-0.2427,-0.2467,-0.2486,-0.2486,-0.246,-0.246,-0.2461,-0.2461,0,0,0,0,0,0,0,-0.2212,-0.2224,-0.2317,-0.2293,-0.23,-0.2349,-0.2361,-0.2371,-0.2422,-0.2414,-0.2418,-0.2427,-0.2426,-0.2466,-0.2466,-0.2486,-0.246,-0.2461,-0.2461,-0.2462,-0.2546,-0.2548,0,0,0,0,0,0,-0.218,-0.2218,-0.2312,-0.2321,-0.2252,-0.2351,-0.2365,-0.238,-0.2426,-0.2431,-0.2428,-0.2429,-0.2465,-0.2465,-0.2466,-0.2476,-0.2461,-0.2462,-0.2462,-0.2545,-0.2547,-0.2549,0,0,0,0,0,0,-0.2177,-0.2188,-0.2306,-0.2268,-0.2286,-0.2353,-0.2371,-0.2383,-0.2411,-0.2437,-0.244,-0.2439,-0.2464,-0.2465,-0.249,-0.2476,-0.2462,-0.2463,-0.2543,-0.2545,-0.2548,-0.2512,0,0,0,0,0,0,-0.2173,-0.2186,-0.2186,-0.2266,-0.2287,-0.2339,-0.2372,-0.2387,-0.2417,-0.242,-0.2448,-0.2448,-0.2463,-0.2489,-0.2491,-0.2477,-0.2463,-0.254,-0.2544,-0.2547,-0.2511,-0.2513,-0.2514,0,0,0,0,0,-0.2168,-0.2167,-0.2185,-0.2196,-0.2285,-0.2338,-0.2354,-0.2402,-0.2418,-0.2424,-0.2467,-0.2446,-0.2511,-0.2492,-0.2493,-0.2479,-0.2539,-0.2543,-0.2547,-0.251,-0.2512,-0.2514,0,0,0,0,0,0,-0.2112,-0.2176,-0.2196,-0.2215,-0.2261,-0.2346,-0.2355,-0.2395,-0.2441,-0.2436,-0.2469,-0.2473,-0.2485,-0.2503,-0.2482,-0.2521,-0.252,-0.2525,-0.2492,-0.2494,-0.2496,-0.2471,-0.2464,0,0,0,0,0,-0.2099,-0.2112,-0.2181,-0.2191,-0.221,-0.2283,-0.2311,-0.2343,-0.2395,-0.2415,-0.2445,-0.248,-0.2509,-0.2517,-0.2539,-0.2561,-0.2536,-0.2558,-0.256,-0.2561,-0.2548,-0.2533,-0.253,-0.2561,-0.2561,-0.2561,0,0,-0.2078,-0.2113,-0.2121,-0.2179,-0.222,-0.2255,-0.2297,-0.2327,-0.2356,-0.2402,-0.2443,-0.2475,-0.2517,-0.2545,-0.2552,-0.2553,-0.2535,-0.2566,-0.2566,-0.2552,-0.2536,-0.2533,-0.2529,-0.2564,-0.2564,-0.2563,0,0,-0.205,-0.2074,-0.2083,-0.212,-0.217,-0.2216,-0.2218,-0.2297,-0.2326,-0.2375,-0.2419,-0.2453,-0.25,-0.2537,-0.256,-0.2589,-0.2541,-0.2593,-0.258,-0.2566,-0.2562,-0.2558,-0.2486,-0.2476,-0.2599,-0.2599,-0.2599,0,-0.202,-0.2052,-0.2091,-0.2114,-0.2142,-0.2194,-0.2218,-0.226,-0.2338,-0.2356,-0.2371,-0.2463,-0.2496,-0.2536,-0.2563,-0.2584,-0.2551,-0.2559,-0.2563,-0.2559,-0.2555,-0.2483,-0.2472,-0.2598,-0.2598,-0.2598,-0.2598,0,-0.2014,-0.2038,-0.2042,-0.2091,-0.2122,-0.2144,-0.2203,-0.2228,-0.2266,-0.2312,-0.235,-0.2419,-0.2469,-0.2495,-0.2541,-0.2548,-0.252,-0.2555,-0.2541,-0.2549,-0.2473,-0.2462,-0.2596,-0.2597,-0.2597,-0.2597,0,0,-0.1956,-0.2026,-0.2028,-0.2051,-0.2113,-0.2138,-0.2166,-0.2215,-0.2222,-0.2284,-0.23,-0.2388,-0.2413,-0.2445,-0.25,-0.251,-0.2463,-0.2526,-0.2526,-0.2424,-0.2378,-0.2371,-0.2358,-0.2493,-0.2492,-0.2491,-0.232,0,-0.1943,-0.1978,-0.2022,-0.2052,-0.2076,-0.2125,-0.2151,-0.2189,-0.222,-0.2239,-0.2295,-0.2329,-0.2397,-0.242,-0.2439,-0.2469,-0.244,-0.2503,-0.2413,-0.2408,-0.2377,-0.2348,-0.2334,-0.2183,-0.2309,-0.2308,-0.2306,0,-0.1928,-0.1957,-0.1986,-0.204,-0.2053,-0.2073,-0.2102,-0.2134,-0.2163,-0.2183,-0.2212,-0.225,-0.229,-0.234,-0.2343,-0.2377,-0.2365,-0.2375,-0.2369,-0.2367,-0.2383,-0.2208,-0.2159,-0.2166,-0.229,-0.2291,-0.2292,0,-0.187,-0.193,-0.1949,-0.197,-0.2035,-0.2044,-0.2074,-0.2107,-0.212,-0.2138,-0.2138,-0.2174,-0.2197,-0.2201,-0.2253,-0.2281,-0.2225,-0.2262,-0.222,-0.2216,-0.2189,-0.2187,-0.2114,-0.2218,-0.2218,-0.2218,-0.2219,0,-0.1843,-0.1856,-0.1919,-0.193,-0.1934,-0.1999,-0.1993,-0.2023,-0.2047,-0.2057,-0.2104,-0.2116,-0.2169,-0.2166,-0.2188,-0.2168,-0.2163,-0.2188,-0.2177,-0.2176,-0.2175,-0.2172,-0.2191,-0.2212,-0.2213,-0.2215,-0.2216,0,-0.1772,-0.1821,-0.1838,-0.1896,-0.1906,-0.1904,-0.1941,-0.1949,-0.1978,-0.1985,-0.1992,-0.2045,-0.2053,-0.2074,-0.2073,-0.2085,-0.2043,-0.2056,-0.2027,-0.2018,-0.1996,-0.2014,-0.1883,-0.1831,-0.1948,-0.1947,-0.1946,0,-0.1739,-0.1741,-0.1785,-0.1794,-0.1816,-0.1827,-0.1844,-0.1894,-0.1914,-0.1959,-0.1969,-0.1974,-0.2,-0.1967,-0.1985,-0.1946,-0.1969,-0.19,-0.1975,-0.1967,-0.198,-0.1974,-0.194,-0.1894,-0.1893,-0.1892,-0.1891,0,-0.1668,-0.168,-0.1699,-0.1709,-0.1727,-0.1736,-0.1772,-0.1775,-0.1852,-0.187,-0.1912,-0.1928,-0.1933,-0.1929,-0.1892,-0.1877,-0.1877,-0.1877,-0.1886,-0.1938,-0.1908,-0.1863,-0.1997,-0.1882,-0.1883,-0.1883,-0.1884,-0.1884,-0.1604,-0.1594,-0.1618,-0.1617,-0.1641,-0.1648,-0.1622,-0.1696,-0.171,-0.1756,-0.1839,-0.1879,-0.1919,-0.1885,-0.1855,-0.1814,-0.1798,-0.1798,-0.1811,-0.1797,-0.179,-0.1881,-0.1769,-0.177,-0.177,-0.177,-0.177,0,-0.1523,-0.1527,-0.1532,-0.153,-0.1516,-0.1551,-0.1575,-0.1555,-0.1566,-0.1681,-0.1726,-0.1851,-0.1852,-0.1871,-0.1859,-0.1794,-0.1738,-0.174,-0.1738,-0.1699,-0.1788,-0.1836,-0.1715,-0.1715,-0.1715,-0.1715,-0.1715,-0.1715,-0.1486,-0.1459,-0.146,-0.1399,-0.1397,-0.1335,-0.1324,-0.1332,-0.1386,-0.1478,-0.1599,-0.1743,-0.1781,-0.1964,-0.1913,-0.1824,-0.1752,-0.1692,-0.166,-0.1771,-0.1779,-0.1786,-0.1835,-0.1716,-0.1716,-0.1543,-0.1542,-0.1541]},{"header":{"parameterUnit":"m.s-1","parameterCategory":2,"la1":30.2991,"la2":30.254,"lo1":-89.0895,"lo2":-89.0444,"dy":0.0017,"dx":0.0017,"nx":28,"ny":28,"refTime":"2024-03-20T03:00:00:Z","depth":"0","parameterNumber":3,"parameterNumberName":"V-component_of_CURRENTS"},"data":[0,0,0,0,0,0,0,0,0,0,0,0,0,0,0,0,0,0,0,0,0,0,0,0,0,0,0,0,0,0,0,0,0,0,0,0,0,0,0,0,0,0,0,0,0,0,0,0,0,0,0,0,0,0,0,0,0,0,-0.0306,-0.0304,0,-0.0161,-0.0159,-0.0157,-0.007,-0.007,-0.007,-0.007,0.0092,0.0096,0.01,0,0,0,0,0,0,0,0,0,0,0,0,0,-0.0383,-0.0382,-0.0306,-0.0304,-0.0303,-0.0161,-0.0159,-0.0156,-0.007,-0.007,-0.007,-0.007,0.009,0.0095,0.01,0,0,0,0,0,0,0,0,0,0,0,0,0,-0.0303,-0.0382,-0.0306,-0.0244,-0.0238,-0.0161,-0.0159,-0.0156,-0.007,-0.007,-0.007,-0.007,0.0089,0.0095,0.0101,0.0134,0,0,0.012,0.0123,0,0,0,0,0,0,0,0,-0.0308,-0.03,-0.0255,-0.0248,-0.0241,-0.0135,-0.0126,-0.0059,-0.007,-0.0131,-0.007,-0.0069,0.0016,0.0028,0.0058,0.0142,0.0149,0.0121,0.0124,0.0127,0.0129,0,0,0,0,0,0,0,-0.0313,-0.0305,-0.0246,-0.0253,-0.0245,-0.0181,-0.017,-0.0112,-0.0059,-0.0126,-0.012,-0.0108,0.002,0.0052,0.0062,0.0151,0.012,0.0126,0.013,0.0132,0.0311,0.0312,0,0,0,0,0,0,-0.0343,-0.0311,-0.0251,-0.0242,-0.0277,-0.018,-0.0168,-0.0168,-0.006,-0.0044,-0.0108,-0.0104,0.0041,0.0055,0.0068,0.012,0.0127,0.0133,0.0136,0.031,0.0311,0.0312,0,0,0,0,0,0,-0.0345,-0.034,-0.0256,-0.0274,-0.0259,-0.0181,-0.018,-0.0165,-0.0137,-0.0047,-0.003,-0.0097,0.0042,0.0059,0.0125,0.0126,0.0136,0.0141,0.0309,0.031,0.0312,0.0219,0,0,0,0,0,0,-0.0348,-0.0342,-0.0349,-0.0277,-0.026,-0.0222,-0.018,-0.0162,-0.0131,-0.0124,-0.0031,-0.0015,0.0043,0.0115,0.0131,0.0135,0.0146,0.0308,0.031,0.0311,0.0221,0.0217,0.0214,0,0,0,0,0,-0.0352,-0.0366,-0.0351,-0.0343,-0.0274,-0.0222,-0.0207,-0.0148,-0.0131,-0.0121,-0.0051,-0.0019,0.0139,0.0121,0.0139,0.0145,0.0307,0.0309,0.0311,0.0223,0.0218,0.0215,0,0,0,0,0,0,-0.0398,-0.0357,-0.0339,-0.0339,-0.029,-0.0209,-0.0197,-0.0158,-0.0095,-0.0091,-0.0007,0.0014,0.0069,0.0126,0.0104,0.0206,0.0229,0.0235,0.0156,0.0152,0.0149,0.0127,0.0151,0,0,0,0,0,-0.0416,-0.0419,-0.0361,-0.036,-0.0346,-0.0275,-0.0247,-0.0209,-0.0144,-0.0117,-0.0048,0.0028,0.0095,0.0136,0.0199,0.0255,0.0286,0.0275,0.0271,0.0268,0.0265,0.0308,0.0306,0.032,0.032,0.032,0,0,-0.0431,-0.041,-0.041,-0.037,-0.0331,-0.0314,-0.0258,-0.0227,-0.0197,-0.011,-0.0054,0.0011,0.0106,0.0168,0.0199,0.0215,0.028,0.0271,0.0267,0.0266,0.031,0.0308,0.0306,0.0322,0.0321,0.0321,0,0,-0.0465,-0.0451,-0.0465,-0.0432,-0.0388,-0.0347,-0.0347,-0.0273,-0.0228,-0.0167,-0.0096,-0.0029,0.0075,0.0147,0.0195,0.0215,0.0252,0.0236,0.021,0.025,0.0248,0.0247,0.0268,0.027,0.0244,0.0243,0.0243,0,-0.0484,-0.0493,-0.0456,-0.0456,-0.0435,-0.0373,-0.0373,-0.0317,-0.0225,-0.0183,-0.0163,-0.0004,0.0067,0.0154,0.0165,0.0205,0.0225,0.0209,0.0241,0.0241,0.0241,0.0264,0.0266,0.0239,0.024,0.024,0.0241,0,-0.0521,-0.0524,-0.0529,-0.0515,-0.0491,-0.0478,-0.0412,-0.0374,-0.0322,-0.0252,-0.0161,-0.0059,0.0036,0.0072,0.0127,0.0178,0.0188,0.0217,0.0237,0.0234,0.0258,0.0263,0.0233,0.0235,0.0236,0.0237,0,0,-0.0562,-0.0559,-0.0557,-0.0557,-0.0521,-0.05,-0.0469,-0.0404,-0.0363,-0.0276,-0.0215,-0.0095,-0.0041,0.0019,0.0096,0.0144,0.0161,0.0176,0.018,0.0172,0.0229,0.0265,0.0274,0.0186,0.0186,0.0187,0.0238,0,-0.0596,-0.0624,-0.0603,-0.061,-0.0619,-0.0559,-0.053,-0.0462,-0.0382,-0.0306,-0.0196,-0.0112,-0.0059,-0.0014,0.0037,0.0142,0.0171,0.0143,0.0257,0.026,0.0272,0.028,0.032,0.0371,0.0242,0.0243,0.0244,0,-0.063,-0.0646,-0.0678,-0.0658,-0.0654,-0.0647,-0.0586,-0.0541,-0.0426,-0.0359,-0.0269,-0.0182,-0.0084,-0.0049,0.009,0.0066,0.0129,0.0198,0.0203,0.0273,0.0306,0.0363,0.0385,0.0516,0.0251,0.025,0.025,0,-0.0681,-0.0684,-0.0717,-0.071,-0.0689,-0.0679,-0.0653,-0.056,-0.0506,-0.0391,-0.0343,-0.0223,-0.015,-0.0059,0.0085,0.0081,0.0228,0.0242,0.0327,0.0329,0.0407,0.0416,0.0552,0.0309,0.0309,0.0309,0.0309,0,-0.0722,-0.0735,-0.0743,-0.0756,-0.0768,-0.0729,-0.0702,-0.0645,-0.0557,-0.049,-0.0378,-0.0305,-0.0151,-0.0039,0.0064,0.0217,0.0207,0.0321,0.0351,0.0377,0.0382,0.0536,0.0588,0.0311,0.0311,0.031,0.031,0,-0.0765,-0.0775,-0.0803,-0.0801,-0.0798,-0.0802,-0.0752,-0.072,-0.0631,-0.0548,-0.052,-0.0363,-0.0211,-0.0057,0.0116,0.0203,0.0418,0.0385,0.0398,0.0428,0.062,0.0665,0.0816,0.0871,0.0478,0.0479,0.048,0,-0.0788,-0.0818,-0.0843,-0.0863,-0.0864,-0.0858,-0.0851,-0.0771,-0.0724,-0.0573,-0.0538,-0.0377,-0.024,0.0024,0.0215,0.0397,0.0486,0.0521,0.0527,0.0642,0.0713,0.0733,0.0769,0.0586,0.0588,0.059,0.0591,0,-0.0828,-0.0846,-0.0873,-0.0925,-0.0937,-0.0934,-0.0908,-0.0885,-0.0773,-0.0694,-0.0558,-0.0442,-0.0156,0.01,0.0344,0.0449,0.0621,0.0556,0.0687,0.082,0.0842,0.0905,0.0525,0.0605,0.0603,0.0602,0.0601,0.0601,-0.0848,-0.0886,-0.0934,-0.0973,-0.0995,-0.1,-0.0992,-0.094,-0.0874,-0.0731,-0.0597,-0.0393,0.0005,0.0373,0.0504,0.0797,0.0744,0.0875,0.0919,0.0927,0.0992,0.063,0.0738,0.0737,0.0737,0.0736,0.0736,0,-0.0872,-0.0921,-0.0973,-0.1024,-0.1059,-0.105,-0.1021,-0.0991,-0.0919,-0.0757,-0.0603,-0.0151,0.0235,0.0583,0.1017,0.1163,0.1174,0.1227,0.1278,0.1296,0.0998,0.1016,0.1177,0.1177,0.1177,0.1177,0.1176,0.1176,-0.0888,-0.0955,-0.0992,-0.1067,-0.1098,-0.1114,-0.1099,-0.1034,-0.0917,-0.0662,-0.0405,-0.0184,0.0356,0.1122,0.1515,0.1525,0.164,0.162,0.1669,0.1489,0.146,0.1432,0.1463,0.1715,0.1716,0.1955,0.1957,0.1959]}],[{"header":{"parameterUnit":"m.s-1","parameterCategory":2,"la1":30.2991,"la2":30.254,"lo1":-89.0895,"lo2":-89.0444,"dy":0.0017,"dx":0.0017,"nx":28,"ny":28,"refTime":"2024-03-20T03:00:00:Z","depth":"2","parameterNumber":2,"parameterNumberName":"U-component_of_CURRENTS"},"data":[0,0,0,0,0,0,0,0,0,0,0,0,0,0,0,0,0,0,0,0,0,0,0,0,0,0,0,0,0,0,0,0,0,0,0,0,0,0,0,0,0,0,0,0,0,0,0,0,0,0,0,0,0,0,0,0,0,0,-0.2081,-0.2082,0,-0.2176,-0.2177,-0.2178,-0.2221,-0.2221,-0.222,-0.222,-0.2254,-0.2255,-0.2256,0,0,0,0,0,0,0,0,0,0,0,0,0,-0.1972,-0.1973,-0.2081,-0.2082,-0.2083,-0.2176,-0.2177,-0.2179,-0.2221,-0.2221,-0.222,-0.222,-0.2253,-0.2255,-0.2256,0,0,0,0,0,0,0,0,0,0,0,0,0,-0.2039,-0.1974,-0.2081,-0.2114,-0.2118,-0.2176,-0.2177,-0.2179,-0.2221,-0.2221,-0.222,-0.222,-0.2253,-0.2255,-0.2256,-0.2275,0,0,-0.2262,-0.2262,0,0,0,0,0,0,0,0,-0.2036,-0.2044,-0.2108,-0.2112,-0.2116,-0.2185,-0.2151,-0.2208,-0.2221,-0.2183,-0.222,-0.222,-0.2224,-0.2228,-0.225,-0.2276,-0.2278,-0.2262,-0.2263,-0.2264,-0.2264,0,0,0,0,0,0,0,-0.2031,-0.204,-0.212,-0.2109,-0.2114,-0.2137,-0.2146,-0.2163,-0.2205,-0.2187,-0.219,-0.2198,-0.2226,-0.2249,-0.2251,-0.2278,-0.2262,-0.2263,-0.2264,-0.2265,-0.2361,-0.2362,0,0,0,0,0,0,-0.2015,-0.2036,-0.2117,-0.2123,-0.2073,-0.2139,-0.2149,-0.2165,-0.2206,-0.2212,-0.2198,-0.22,-0.2246,-0.2249,-0.2252,-0.2281,-0.2264,-0.2265,-0.2266,-0.2359,-0.2361,-0.2363,0,0,0,0,0,0,-0.2012,-0.2022,-0.2113,-0.208,-0.2093,-0.214,-0.2158,-0.2167,-0.2187,-0.2215,-0.222,-0.2209,-0.2246,-0.225,-0.2285,-0.2282,-0.2266,-0.2267,-0.2358,-0.236,-0.2362,-0.2335,0,0,0,0,0,0,-0.2009,-0.202,-0.2022,-0.2079,-0.2094,-0.2136,-0.2159,-0.2169,-0.2192,-0.2195,-0.2226,-0.2229,-0.2246,-0.2282,-0.2286,-0.2284,-0.2269,-0.2356,-0.2359,-0.2361,-0.2334,-0.2336,-0.2338,0,0,0,0,0,-0.2005,-0.2005,-0.2022,-0.2031,-0.2096,-0.2135,-0.2145,-0.2179,-0.2192,-0.2197,-0.2237,-0.2228,-0.2303,-0.2285,-0.229,-0.2288,-0.2354,-0.2358,-0.2361,-0.2333,-0.2336,-0.2338,0,0,0,0,0,0,-0.1955,-0.2011,-0.203,-0.2047,-0.2083,-0.2141,-0.2146,-0.2177,-0.2215,-0.2215,-0.2248,-0.2254,-0.2275,-0.2299,-0.2279,-0.2329,-0.2327,-0.2332,-0.2304,-0.2307,-0.2309,-0.2277,-0.227,0,0,0,0,0,-0.1946,-0.196,-0.2017,-0.2026,-0.2043,-0.2096,-0.2115,-0.2141,-0.2183,-0.22,-0.223,-0.2266,-0.2295,-0.2315,-0.2334,-0.2369,-0.2343,-0.2375,-0.2376,-0.2378,-0.2359,-0.2345,-0.2342,-0.2374,-0.2374,-0.2374,0,0,-0.1928,-0.1959,-0.1967,-0.2016,-0.2046,-0.2075,-0.2106,-0.213,-0.2153,-0.2195,-0.223,-0.226,-0.2303,-0.2336,-0.2349,-0.2357,-0.2353,-0.2382,-0.2382,-0.2362,-0.2348,-0.2344,-0.2341,-0.2377,-0.2376,-0.2376,0,0,-0.1902,-0.1927,-0.1936,-0.1967,-0.201,-0.2045,-0.2051,-0.2111,-0.2133,-0.2175,-0.2212,-0.2246,-0.2298,-0.2332,-0.2355,-0.2384,-0.2351,-0.2399,-0.2392,-0.2379,-0.2375,-0.2371,-0.2309,-0.23,-0.2414,-0.2414,-0.2414,0,-0.1876,-0.1906,-0.1941,-0.1962,-0.1987,-0.2032,-0.2053,-0.2083,-0.2147,-0.2161,-0.2176,-0.2255,-0.229,-0.2334,-0.2357,-0.2381,-0.2356,-0.2374,-0.2376,-0.2372,-0.2369,-0.2306,-0.2296,-0.2413,-0.2413,-0.2413,-0.2414,0,-0.1871,-0.1895,-0.1898,-0.1946,-0.1971,-0.1992,-0.2043,-0.2063,-0.2095,-0.2128,-0.2162,-0.2221,-0.2267,-0.2295,-0.2339,-0.2349,-0.233,-0.2362,-0.2356,-0.2363,-0.2298,-0.2288,-0.2412,-0.2412,-0.2413,-0.2413,0,0,-0.1819,-0.1884,-0.1887,-0.1909,-0.1967,-0.1988,-0.2014,-0.2054,-0.206,-0.2111,-0.2121,-0.2198,-0.222,-0.2251,-0.2306,-0.2317,-0.2275,-0.2338,-0.2338,-0.2249,-0.2205,-0.2198,-0.2186,-0.231,-0.2309,-0.2308,-0.2159,0,-0.1808,-0.1841,-0.1882,-0.1911,-0.1934,-0.198,-0.2001,-0.2034,-0.2059,-0.2073,-0.212,-0.2148,-0.2207,-0.2233,-0.225,-0.2275,-0.2253,-0.231,-0.2235,-0.2232,-0.2204,-0.2177,-0.2045,-0.1904,-0.2149,-0.2147,-0.2146,0,-0.1794,-0.1822,-0.1849,-0.19,-0.1913,-0.1933,-0.1961,-0.1988,-0.2012,-0.2028,-0.2054,-0.2085,-0.2121,-0.2163,-0.2164,-0.2199,-0.2189,-0.2196,-0.2191,-0.2184,-0.2208,-0.1947,-0.1876,-0.2129,-0.213,-0.2132,-0.2133,0,-0.1742,-0.1798,-0.1816,-0.1836,-0.1898,-0.1907,-0.1937,-0.1966,-0.1976,-0.1992,-0.1992,-0.2024,-0.2043,-0.2045,-0.2087,-0.2115,-0.2059,-0.2095,-0.2057,-0.2054,-0.1925,-0.1915,-0.2049,-0.205,-0.205,-0.205,-0.2051,0,-0.1717,-0.1729,-0.179,-0.18,-0.1805,-0.1868,-0.1863,-0.1892,-0.1915,-0.1923,-0.1966,-0.1976,-0.202,-0.2015,-0.2032,-0.201,-0.2007,-0.2023,-0.2018,-0.1914,-0.1904,-0.2103,-0.2112,-0.2045,-0.2046,-0.2047,-0.2048,0,-0.165,-0.1697,-0.1713,-0.1769,-0.1779,-0.178,-0.1817,-0.1824,-0.1854,-0.186,-0.1868,-0.1915,-0.192,-0.1936,-0.1931,-0.1939,-0.1921,-0.1909,-0.1765,-0.1748,-0.192,-0.1929,-0.1814,-0.1812,-0.1811,-0.181,-0.1809,0,-0.1619,-0.1622,-0.1664,-0.1673,-0.1695,-0.1708,-0.1725,-0.1774,-0.1793,-0.1836,-0.1845,-0.185,-0.1868,-0.1833,-0.1827,-0.1785,-0.186,-0.1646,-0.1693,-0.189,-0.1897,-0.1908,-0.1919,-0.1483,-0.148,-0.1477,-0.1474,0,-0.1552,-0.1564,-0.1582,-0.1593,-0.1612,-0.1621,-0.1658,-0.166,-0.1735,-0.1749,-0.1787,-0.1797,-0.1783,-0.1707,-0.1664,-0.1633,-0.1648,-0.159,-0.1804,-0.1602,-0.1578,-0.1586,-0.1606,-0.1449,-0.1452,-0.1454,-0.1455,-0.1456,-0.1491,-0.1481,-0.1504,-0.1505,-0.1528,-0.1537,-0.1513,-0.1576,-0.1586,-0.1601,-0.1688,-0.166,-0.1648,-0.1531,-0.1467,-0.1404,-0.1519,-0.1456,-0.1464,-0.1475,-0.1502,-0.1482,-0.1335,-0.1337,-0.1338,-0.134,-0.1341,0,-0.141,-0.1416,-0.1421,-0.142,-0.1405,-0.1444,-0.1468,-0.1432,-0.1428,-0.1475,-0.1491,-0.1365,-0.1328,-0.1309,-0.1193,-0.1186,-0.1161,-0.1127,-0.1094,-0.112,-0.1142,-0.1153,-0.0893,-0.0891,-0.089,-0.0889,0,0,-0.1373,-0.1344,-0.1344,-0.1287,-0.129,-0.1227,-0.1217,-0.1191,-0.119,-0.1149,-0.1141,-0.1253,-0.1286,-0.1094,-0.1047,-0.0954,-0.102,-0.0903,-0.1261,-0.1247,-0.1268,-0.1331,-0.1377,0,0,0,0,0]},{"header":{"parameterUnit":"m.s-1","parameterCategory":2,"la1":30.2991,"la2":30.254,"lo1":-89.0895,"lo2":-89.0444,"dy":0.0017,"dx":0.0017,"nx":28,"ny":28,"refTime":"2024-03-20T03:00:00:Z","depth":"2","parameterNumber":3,"parameterNumberName":"V-component_of_CURRENTS"},"data":[0,0,0,0,0,0,0,0,0,0,0,0,0,0,0,0,0,0,0,0,0,0,0,0,0,0,0,0,0,0,0,0,0,0,0,0,0,0,0,0,0,0,0,0,0,0,0,0,0,0,0,0,0,0,0,0,0,0,-0.0287,-0.0286,0,-0.0154,-0.0152,-0.015,-0.0073,-0.0073,-0.0073,-0.0073,0.0076,0.008,0.0083,0,0,0,0,0,0,0,0,0,0,0,0,0,-0.0362,-0.0361,-0.0288,-0.0286,-0.0284,-0.0154,-0.0152,-0.015,-0.0073,-0.0073,-0.0073,-0.0073,0.0075,0.0079,0.0084,0,0,0,0,0,0,0,0,0,0,0,0,0,-0.0288,-0.0361,-0.0288,-0.0231,-0.0225,-0.0154,-0.0152,-0.0149,-0.0073,-0.0073,-0.0073,-0.0073,0.0073,0.0079,0.0084,0.0115,0,0,0.0102,0.0104,0,0,0,0,0,0,0,0,-0.0292,-0.0285,-0.0241,-0.0235,-0.0228,-0.0131,-0.0123,-0.0061,-0.0073,-0.013,-0.0073,-0.0073,0.0007,0.0018,0.0045,0.0122,0.0128,0.0102,0.0106,0.0108,0.011,0,0,0,0,0,0,0,-0.0298,-0.029,-0.0233,-0.024,-0.0232,-0.0173,-0.0164,-0.0111,-0.0063,-0.0125,-0.0119,-0.0106,0.0011,0.0039,0.0049,0.013,0.0102,0.0107,0.0111,0.0113,0.0278,0.0279,0,0,0,0,0,0,-0.0323,-0.0295,-0.0237,-0.0229,-0.0262,-0.0173,-0.0162,-0.0161,-0.0064,-0.0049,-0.0107,-0.0103,0.0029,0.0042,0.0054,0.0104,0.0108,0.0113,0.0117,0.0277,0.0278,0.0279,0,0,0,0,0,0,-0.0326,-0.032,-0.0243,-0.0259,-0.0246,-0.0173,-0.0172,-0.0159,-0.0134,-0.0051,-0.0035,-0.0097,0.003,0.0046,0.0105,0.011,0.0116,0.0121,0.0276,0.0277,0.0279,0.0198,0,0,0,0,0,0,-0.0329,-0.0322,-0.033,-0.0262,-0.0246,-0.021,-0.0172,-0.0156,-0.0127,-0.0122,-0.0037,-0.0022,0.0031,0.0096,0.0111,0.0118,0.0126,0.0275,0.0276,0.0278,0.0199,0.0196,0.0194,0,0,0,0,0,-0.0332,-0.0346,-0.0331,-0.0324,-0.026,-0.021,-0.0197,-0.0142,-0.0128,-0.0119,-0.0056,-0.0025,0.0118,0.0101,0.0118,0.0127,0.0274,0.0276,0.0278,0.02,0.0197,0.0194,0,0,0,0,0,0,-0.0378,-0.0337,-0.032,-0.032,-0.0274,-0.0198,-0.0188,-0.0152,-0.0095,-0.0093,-0.0016,0.0004,0.0054,0.0107,0.0086,0.0183,0.0202,0.0208,0.0138,0.0135,0.0132,0.011,0.013,0,0,0,0,0,-0.0395,-0.0397,-0.0342,-0.0341,-0.0327,-0.0261,-0.0235,-0.0199,-0.0141,-0.0116,-0.0053,0.0017,0.0078,0.0116,0.0174,0.0227,0.0256,0.0247,0.0245,0.0242,0.0238,0.0281,0.028,0.0286,0.0286,0.0286,0,0,-0.041,-0.0389,-0.0389,-0.0351,-0.0315,-0.0298,-0.0245,-0.0217,-0.0188,-0.0109,-0.0058,0.0001,0.0088,0.0146,0.0175,0.019,0.0255,0.0244,0.0241,0.0239,0.0283,0.0282,0.0281,0.0288,0.0287,0.0287,0,0,-0.0443,-0.043,-0.0443,-0.0412,-0.0369,-0.0331,-0.033,-0.026,-0.0218,-0.0161,-0.0097,-0.0035,0.0061,0.0128,0.0174,0.0193,0.0229,0.0214,0.0192,0.0233,0.0232,0.0231,0.0253,0.0255,0.0223,0.0222,0.0222,0,-0.0462,-0.047,-0.0435,-0.0434,-0.0415,-0.0355,-0.0355,-0.0302,-0.0216,-0.0176,-0.0158,-0.0011,0.0054,0.0138,0.0148,0.0184,0.0205,0.019,0.0225,0.0225,0.0226,0.0249,0.0252,0.0219,0.0219,0.022,0.022,0,-0.0498,-0.0501,-0.0506,-0.0493,-0.0469,-0.0457,-0.0392,-0.0356,-0.0307,-0.024,-0.0153,-0.0059,0.003,0.0065,0.0114,0.0165,0.0175,0.0202,0.0221,0.022,0.0245,0.025,0.0214,0.0215,0.0216,0.0217,0,0,-0.054,-0.0536,-0.0534,-0.0534,-0.0498,-0.0478,-0.0447,-0.0384,-0.0345,-0.0261,-0.0201,-0.009,-0.0038,0.0017,0.009,0.0138,0.0158,0.0167,0.0171,0.0167,0.023,0.0259,0.0267,0.0184,0.0184,0.0185,0.0238,0,-0.0573,-0.0601,-0.0579,-0.0586,-0.0595,-0.0535,-0.0507,-0.0441,-0.0363,-0.0289,-0.0183,-0.0104,-0.0053,-0.0012,0.004,0.0138,0.017,0.014,0.0252,0.0255,0.0263,0.0274,0.024,0.0288,0.0243,0.0244,0.0245,0,-0.0608,-0.0623,-0.0654,-0.0634,-0.0629,-0.0622,-0.0563,-0.0518,-0.0405,-0.0341,-0.0252,-0.0169,-0.0073,-0.0041,0.0096,0.0072,0.0133,0.02,0.0204,0.0264,0.0294,0.0289,0.0299,0.0253,0.0253,0.0252,0.0251,0,-0.0658,-0.0661,-0.0693,-0.0686,-0.0664,-0.0655,-0.063,-0.0538,-0.0485,-0.0372,-0.0327,-0.0206,-0.0138,-0.0046,0.0092,0.0088,0.0232,0.0247,0.0326,0.0328,0.034,0.0342,0.0315,0.0315,0.0315,0.0315,0.0315,0,-0.0699,-0.0713,-0.072,-0.0733,-0.0746,-0.0706,-0.068,-0.0624,-0.0537,-0.0472,-0.036,-0.029,-0.0138,-0.0029,0.0073,0.0221,0.0215,0.0321,0.0349,0.0312,0.0311,0.0319,0.0319,0.0317,0.0317,0.0316,0.0316,0,-0.0743,-0.0752,-0.078,-0.0778,-0.0775,-0.0781,-0.0732,-0.0701,-0.0614,-0.0532,-0.0505,-0.0351,-0.0202,-0.005,0.012,0.0207,0.0339,0.0384,0.0323,0.0344,0.0403,0.0398,0.0469,0.0471,0.0472,0.0473,0.0474,0,-0.0767,-0.0797,-0.0822,-0.0842,-0.0844,-0.0839,-0.0832,-0.0753,-0.0706,-0.0559,-0.0524,-0.0369,-0.0236,0.0022,0.0198,0.0375,0.0379,0.0436,0.0432,0.0401,0.0422,0.0415,0.0408,0.0407,0.0407,0.0407,0.0408,0,-0.0809,-0.0826,-0.0853,-0.0905,-0.0919,-0.0915,-0.089,-0.0868,-0.0757,-0.068,-0.0547,-0.0436,-0.017,0.004,0.0273,0.0367,0.0408,0.0448,0.0444,0.0378,0.0349,0.0367,0.0361,0.041,0.041,0.041,0.041,0.0409,-0.0831,-0.0868,-0.0916,-0.0956,-0.0978,-0.0982,-0.0974,-0.0922,-0.0856,-0.0716,-0.0594,-0.0409,-0.0183,0.0147,0.032,0.0464,0.0462,0.0488,0.0485,0.0482,0.0469,0.0445,0.0521,0.0521,0.0522,0.0522,0.0522,0,-0.0857,-0.0905,-0.0957,-0.1008,-0.1041,-0.1034,-0.1004,-0.0969,-0.0895,-0.0753,-0.0609,-0.0361,-0.0103,0.0121,0.036,0.0513,0.0489,0.0523,0.0466,0.0462,0.046,0.0444,0.0491,0.0491,0.0491,0.0492,0,0,-0.0873,-0.094,-0.0976,-0.1049,-0.1081,-0.1095,-0.1079,-0.1006,-0.0901,-0.0763,-0.0622,-0.0405,-0.0114,0.0053,0.0252,0.0377,0.0368,0.0375,0.0382,0.0286,0.0281,0.0421,0.0392,0,0,0,0,0]}],[{"header":{"parameterUnit":"m.s-1","parameterCategory":2,"la1":30.2991,"la2":30.254,"lo1":-89.0895,"lo2":-89.0444,"dy":0.0017,"dx":0.0017,"nx":28,"ny":28,"refTime":"2024-03-20T03:00:00:Z","depth":"4","parameterNumber":2,"parameterNumberName":"U-component_of_CURRENTS"},"data":[0,0,0,0,0,0,0,0,0,0,0,0,0,0,0,0,0,0,0,0,0,0,0,0,0,0,0,0,0,0,0,0,0,0,0,0,0,0,0,0,0,0,0,0,0,0,0,0,0,0,0,0,0,0,0,0,0,0,-0.1427,-0.1428,0,-0.1376,-0.1375,-0.1373,-0.1298,-0.1298,-0.1298,-0.1298,-0.1213,-0.1211,-0.1208,0,0,0,0,0,0,0,0,0,0,0,0,0,-0.1327,-0.1329,-0.1427,-0.1428,-0.1428,-0.1377,-0.1374,-0.1372,-0.1298,-0.1298,-0.1298,-0.1298,-0.1214,-0.1211,-0.1208,0,0,0,0,0,0,0,0,0,0,0,0,0,-0.1319,-0.1329,-0.1427,-0.1396,-0.1394,-0.1377,-0.1374,-0.1372,-0.1298,-0.1298,-0.1298,-0.1298,-0.1215,-0.1211,-0.1208,-0.1185,0,0,-0.1197,-0.1196,0,0,0,0,0,0,0,0,-0.132,-0.1321,-0.14,-0.1398,-0.1396,-0.1357,-0.1309,-0.1313,-0.1298,-0.1318,-0.1298,-0.1298,-0.1268,-0.126,-0.1229,-0.1181,-0.1177,-0.1197,-0.1195,-0.1193,-0.1192,0,0,0,0,0,0,0,-0.132,-0.1322,-0.1392,-0.1401,-0.1399,-0.1341,-0.1339,-0.1308,-0.1281,-0.1316,-0.1315,-0.1333,-0.1264,-0.1233,-0.1227,-0.1176,-0.1197,-0.1194,-0.1192,-0.1191,-0.1109,-0.1109,0,0,0,0,0,0,-0.1364,-0.1324,-0.1394,-0.1392,-0.1374,-0.1344,-0.1341,-0.1357,-0.1282,-0.1275,-0.1333,-0.133,-0.1238,-0.1231,-0.1224,-0.1209,-0.1193,-0.119,-0.1188,-0.1109,-0.1109,-0.1109,0,0,0,0,0,0,-0.1362,-0.1371,-0.1396,-0.1368,-0.1369,-0.1348,-0.1364,-0.1356,-0.1353,-0.1298,-0.1287,-0.1344,-0.1238,-0.1229,-0.1215,-0.1205,-0.1189,-0.1186,-0.1109,-0.1109,-0.1109,-0.117,0,0,0,0,0,0,-0.1359,-0.137,-0.1386,-0.1371,-0.1373,-0.1403,-0.1366,-0.1356,-0.137,-0.1366,-0.1304,-0.1294,-0.1238,-0.1221,-0.1212,-0.12,-0.1183,-0.1109,-0.1109,-0.1109,-0.1168,-0.1172,-0.1175,0,0,0,0,0,-0.1355,-0.1366,-0.1386,-0.1395,-0.1399,-0.1405,-0.1398,-0.1372,-0.1372,-0.1369,-0.1333,-0.1297,-0.1212,-0.1219,-0.1208,-0.1195,-0.1109,-0.1109,-0.1109,-0.1166,-0.1171,-0.1175,0,0,0,0,0,0,-0.1318,-0.1362,-0.1382,-0.1405,-0.1424,-0.1399,-0.1394,-0.1398,-0.1365,-0.1365,-0.1308,-0.1295,-0.1279,-0.1235,-0.1244,-0.117,-0.115,-0.1148,-0.1197,-0.1201,-0.1205,-0.1261,-0.118,0,0,0,0,0,-0.133,-0.1355,-0.139,-0.141,-0.1426,-0.1423,-0.1424,-0.1423,-0.1404,-0.139,-0.1354,-0.1307,-0.1263,-0.1237,-0.1197,-0.1164,-0.1163,-0.1144,-0.1148,-0.1151,-0.1189,-0.1185,-0.1192,-0.1108,-0.1108,-0.1108,0,0,-0.1325,-0.1352,-0.1368,-0.1406,-0.141,-0.143,-0.1419,-0.1437,-0.1452,-0.1388,-0.138,-0.1335,-0.1264,-0.1221,-0.1207,-0.1185,-0.1169,-0.1151,-0.1154,-0.1191,-0.1185,-0.1194,-0.1202,-0.1108,-0.1108,-0.1108,0,0,-0.1317,-0.1354,-0.1372,-0.1396,-0.1438,-0.1444,-0.1469,-0.1476,-0.1475,-0.148,-0.1426,-0.1393,-0.133,-0.1268,-0.1229,-0.1236,-0.1204,-0.1205,-0.125,-0.1245,-0.1253,-0.126,-0.1256,-0.1262,-0.1188,-0.1188,-0.1188,0,-0.131,-0.1344,-0.1376,-0.1399,-0.1423,-0.1464,-0.1488,-0.1495,-0.1496,-0.1498,-0.1493,-0.1414,-0.1354,-0.1299,-0.1285,-0.1246,-0.1243,-0.1238,-0.1253,-0.126,-0.1266,-0.126,-0.1266,-0.1191,-0.1191,-0.119,-0.119,0,-0.1314,-0.135,-0.1361,-0.1414,-0.1439,-0.1468,-0.1512,-0.1532,-0.1554,-0.1555,-0.1548,-0.1483,-0.1431,-0.139,-0.1337,-0.1326,-0.131,-0.1274,-0.1251,-0.1279,-0.127,-0.1275,-0.1195,-0.1194,-0.1193,-0.1192,0,0,-0.1279,-0.1352,-0.136,-0.139,-0.1456,-0.1475,-0.1519,-0.1556,-0.1572,-0.1594,-0.1598,-0.1538,-0.1525,-0.1483,-0.1412,-0.1399,-0.1417,-0.1358,-0.1356,-0.1371,-0.1415,-0.132,-0.1316,-0.1385,-0.1387,-0.1388,-0.1387,0,-0.1277,-0.132,-0.1363,-0.1411,-0.1439,-0.1495,-0.1523,-0.1564,-0.1587,-0.1597,-0.1589,-0.1563,-0.1553,-0.151,-0.1513,-0.1431,-0.1437,-0.1421,-0.1373,-0.1372,-0.1297,-0.1321,-0.1393,-0.1391,-0.1392,-0.1393,-0.1394,0,-0.1267,-0.1302,-0.1347,-0.1414,-0.1432,-0.1467,-0.152,-0.1553,-0.1589,-0.1601,-0.162,-0.1609,-0.1599,-0.158,-0.156,-0.1551,-0.1513,-0.1471,-0.1468,-0.1373,-0.1287,-0.1357,-0.1403,-0.1403,-0.1402,-0.1401,-0.1401,0,-0.1217,-0.129,-0.1326,-0.1352,-0.143,-0.1459,-0.1504,-0.1549,-0.1566,-0.1603,-0.1605,-0.163,-0.161,-0.1616,-0.1562,-0.1557,-0.1537,-0.1501,-0.14,-0.1392,-0.1453,-0.1446,-0.1521,-0.1521,-0.1521,-0.1521,-0.1521,0,-0.1188,-0.122,-0.1309,-0.1328,-0.1363,-0.1435,-0.1463,-0.1505,-0.1546,-0.1558,-0.1607,-0.1604,-0.1621,-0.1609,-0.1584,-0.1514,-0.1563,-0.1435,-0.1392,-0.1474,-0.1469,-0.1456,-0.1449,-0.1521,-0.1521,-0.1521,-0.1521,0,-0.1118,-0.1183,-0.1225,-0.1313,-0.1339,-0.1364,-0.1438,-0.1457,-0.1508,-0.1524,-0.1538,-0.1577,-0.1565,-0.1572,-0.1536,-0.1502,-0.1453,-0.1415,-0.1517,-0.1475,-0.1312,-0.1308,-0.1314,-0.1311,-0.1308,-0.1306,-0.1304,0,-0.1085,-0.1102,-0.1192,-0.1219,-0.1263,-0.1313,-0.1347,-0.1421,-0.1445,-0.1498,-0.1501,-0.1505,-0.1522,-0.1413,-0.1434,-0.1398,-0.1376,-0.1359,-0.1349,-0.1338,-0.1295,-0.1295,-0.1294,-0.1299,-0.1299,-0.1298,-0.1297,0,-0.1014,-0.1055,-0.1091,-0.114,-0.1189,-0.1227,-0.129,-0.1289,-0.1376,-0.1432,-0.1413,-0.1392,-0.1367,-0.1347,-0.1317,-0.1295,-0.1377,-0.133,-0.1336,-0.1327,-0.132,-0.128,-0.1283,-0.1288,-0.1289,-0.129,-0.1291,0,-0.096,-0.0963,-0.1016,-0.1047,-0.1108,-0.1133,-0.1173,-0.121,-0.1232,-0.1313,-0.1302,-0.1316,-0.1354,-0.1292,-0.1274,-0.1237,-0.122,-0.1191,-0.1203,-0.1214,-0.118,-0.1157,-0.1055,0,0,0,0,0,-0.0898,-0.0894,-0.0922,-0.0955,-0.1015,-0.1045,-0.1134,-0.1185,-0.1266,-0.1225,-0.1258,-0.1236,-0.1192,-0.1202,-0.1138,-0.1227,-0.1226,-0.1151,-0.12,-0.1235,-0.1246,-0.1214,0,0,0,0,0,0,-0.086,-0.0879,-0.0884,-0.087,-0.0878,-0.093,-0.0983,-0.1048,-0.1035,-0.112,-0.1097,-0.1161,-0.113,-0.1192,-0.1105,-0.111,-0.1119,-0.117,-0.1167,-0.1229,-0.1239,-0.1248,-0.1218,0,0,0,0,0]},{"header":{"parameterUnit":"m.s-1","parameterCategory":2,"la1":30.2991,"la2":30.254,"lo1":-89.0895,"lo2":-89.0444,"dy":0.0017,"dx":0.0017,"nx":28,"ny":28,"refTime":"2024-03-20T03:00:00:Z","depth":"4","parameterNumber":3,"parameterNumberName":"V-component_of_CURRENTS"},"data":[0,0,0,0,0,0,0,0,0,0,0,0,0,0,0,0,0,0,0,0,0,0,0,0,0,0,0,0,0,0,0,0,0,0,0,0,0,0,0,0,0,0,0,0,0,0,0,0,0,0,0,0,0,0,0,0,0,0,-0.0196,-0.0195,0,-0.0122,-0.0122,-0.0121,-0.0087,-0.0087,-0.0087,-0.0087,-0.0104,-0.0104,-0.0105,0,0,0,0,0,0,0,0,0,0,0,0,0,-0.0239,-0.0239,-0.0196,-0.0195,-0.0194,-0.0123,-0.0122,-0.0121,-0.0087,-0.0087,-0.0087,-0.0087,-0.0104,-0.0104,-0.0105,0,0,0,0,0,0,0,0,0,0,0,0,0,-0.02,-0.0239,-0.0196,-0.0167,-0.0164,-0.0123,-0.0122,-0.0121,-0.0087,-0.0087,-0.0087,-0.0087,-0.0103,-0.0104,-0.0105,-0.0112,0,0,-0.0107,-0.0108,0,0,0,0,0,0,0,0,-0.0202,-0.0198,-0.0172,-0.0169,-0.0165,-0.0113,-0.0143,-0.0122,-0.0087,-0.0117,-0.0087,-0.0086,-0.0115,-0.0114,-0.0101,-0.0112,-0.0113,-0.0107,-0.0108,-0.0108,-0.0108,0,0,0,0,0,0,0,-0.0205,-0.0201,-0.0168,-0.0171,-0.0167,-0.0135,-0.013,-0.0138,-0.012,-0.0115,-0.0112,-0.0102,-0.0113,-0.01,-0.0102,-0.0113,-0.0107,-0.0108,-0.0109,-0.0109,-0.014,-0.014,0,0,0,0,0,0,-0.0215,-0.0204,-0.017,-0.0166,-0.0182,-0.0134,-0.0129,-0.0131,-0.0118,-0.0115,-0.0102,-0.01,-0.0099,-0.0101,-0.0102,-0.0099,-0.0108,-0.0109,-0.0109,-0.014,-0.014,-0.0141,0,0,0,0,0,0,-0.0217,-0.0213,-0.0173,-0.0181,-0.0174,-0.0134,-0.0136,-0.0129,-0.0119,-0.0107,-0.0106,-0.0099,-0.0099,-0.0101,-0.0099,-0.0101,-0.0109,-0.011,-0.0139,-0.014,-0.014,-0.0101,0,0,0,0,0,0,-0.0219,-0.0215,-0.0223,-0.0183,-0.0174,-0.0154,-0.0136,-0.0128,-0.0112,-0.011,-0.0104,-0.0105,-0.0099,-0.0098,-0.01,-0.0102,-0.0111,-0.0139,-0.014,-0.014,-0.0102,-0.01,-0.0099,0,0,0,0,0,-0.0221,-0.0233,-0.0224,-0.022,-0.0186,-0.0154,-0.0147,-0.0118,-0.0112,-0.0109,-0.0095,-0.0105,-0.0104,-0.0098,-0.01,-0.0103,-0.0139,-0.0139,-0.014,-0.0103,-0.0101,-0.0099,0,0,0,0,0,0,-0.0254,-0.0229,-0.0219,-0.0223,-0.0193,-0.0148,-0.0147,-0.0124,-0.0109,-0.0115,-0.0101,-0.01,-0.01,-0.0113,-0.0106,-0.0117,-0.0128,-0.0129,-0.0099,-0.0097,-0.0095,-0.0087,-0.0111,0,0,0,0,0,-0.0266,-0.0272,-0.0234,-0.0237,-0.0229,-0.019,-0.0175,-0.0155,-0.0132,-0.0125,-0.0111,-0.011,-0.0105,-0.0109,-0.0109,-0.0115,-0.0101,-0.0123,-0.0122,-0.012,-0.0117,-0.0081,-0.0075,-0.0143,-0.0143,-0.0143,0,0,-0.0279,-0.0267,-0.0269,-0.0245,-0.0225,-0.0217,-0.0182,-0.0168,-0.015,-0.0133,-0.0116,-0.0104,-0.0105,-0.0099,-0.0103,-0.011,-0.0095,-0.0121,-0.0119,-0.0117,-0.0081,-0.0074,-0.0068,-0.0144,-0.0144,-0.0144,0,0,-0.0307,-0.0301,-0.0314,-0.0293,-0.0267,-0.0243,-0.0242,-0.0199,-0.0172,-0.015,-0.013,-0.0106,-0.0113,-0.009,-0.0087,-0.0082,-0.0084,-0.0105,-0.0091,-0.0055,-0.0049,-0.0043,-0.0013,-0.0005,-0.0107,-0.0107,-0.0107,0,-0.0324,-0.0333,-0.031,-0.0312,-0.03,-0.026,-0.0264,-0.0228,-0.0183,-0.0156,-0.015,-0.0107,-0.0101,-0.0074,-0.0066,-0.0075,-0.0064,-0.0091,-0.005,-0.0044,-0.0038,-0.0009,-0.0,-0.0106,-0.0106,-0.0106,-0.0106,0,-0.0353,-0.036,-0.0366,-0.036,-0.0346,-0.0342,-0.0295,-0.0271,-0.0238,-0.0189,-0.0142,-0.0105,-0.0081,-0.0074,-0.0066,-0.003,-0.0038,-0.0045,-0.0046,-0.0028,-0.0,0.0009,-0.0103,-0.0104,-0.0104,-0.0105,0,0,-0.0385,-0.0388,-0.0389,-0.0394,-0.0371,-0.0361,-0.0338,-0.0292,-0.0264,-0.0203,-0.0156,-0.0108,-0.0072,-0.0066,-0.0044,-0.0003,0.0059,-0.001,-0.0009,0.0034,0.013,0.0108,0.0115,0.0057,0.0059,0.006,0.0137,0,-0.0413,-0.0441,-0.0426,-0.044,-0.045,-0.0409,-0.0389,-0.034,-0.0282,-0.0225,-0.0148,-0.0108,-0.0075,-0.0063,-0.0009,0.0037,0.0081,0.0038,0.0093,0.0095,0.0085,0.0124,0.0065,0.0143,0.0145,0.0147,0.0148,0,-0.044,-0.0456,-0.0488,-0.0482,-0.0481,-0.0483,-0.0443,-0.041,-0.0319,-0.027,-0.0196,-0.0141,-0.0061,-0.0045,0.0072,0.0038,0.0085,0.013,0.0133,0.0104,0.0088,0.0117,0.0163,0.0162,0.0161,0.016,0.0159,0,-0.0477,-0.049,-0.0523,-0.0521,-0.0513,-0.0514,-0.05,-0.043,-0.0391,-0.0297,-0.0263,-0.0156,-0.0111,-0.0022,0.0077,0.0069,0.0202,0.0196,0.0227,0.0226,0.0207,0.0199,0.0278,0.0278,0.0277,0.0277,0.0277,0,-0.0504,-0.0524,-0.0547,-0.0562,-0.0587,-0.0559,-0.0551,-0.0509,-0.0442,-0.0391,-0.0293,-0.0237,-0.0105,-0.0011,0.0076,0.0183,0.0201,0.0243,0.025,0.0219,0.0212,0.0213,0.0205,0.028,0.0279,0.0279,0.0278,0,-0.0531,-0.0549,-0.0585,-0.0602,-0.061,-0.0624,-0.0605,-0.0583,-0.0517,-0.0452,-0.043,-0.0297,-0.0174,-0.004,0.0105,0.0169,0.0274,0.0302,0.0264,0.0265,0.0276,0.0269,0.035,0.035,0.035,0.035,0.035,0,-0.0545,-0.0574,-0.0624,-0.0654,-0.0667,-0.0682,-0.0687,-0.0633,-0.0596,-0.0482,-0.045,-0.0327,-0.0228,-0.0025,0.01,0.0268,0.0283,0.033,0.0312,0.0289,0.0287,0.0279,0.0272,0.035,0.035,0.035,0.035,0,-0.057,-0.0599,-0.0631,-0.0701,-0.0731,-0.0744,-0.0738,-0.0719,-0.0632,-0.0582,-0.0452,-0.0329,-0.0189,-0.003,0.0096,0.0215,0.03,0.033,0.0331,0.0314,0.0289,0.0286,0.0279,0.0349,0.0349,0.0349,0.0349,0,-0.0585,-0.0622,-0.068,-0.073,-0.0776,-0.0787,-0.0778,-0.0723,-0.0678,-0.0539,-0.0504,-0.0333,-0.023,-0.0058,0.0062,0.0175,0.0198,0.0224,0.023,0.0232,0.017,0.0119,0.0146,0,0,0,0,0,-0.0594,-0.0642,-0.07,-0.0756,-0.08,-0.0821,-0.08,-0.0772,-0.0694,-0.0607,-0.0546,-0.0407,-0.0202,-0.0111,-0.0001,0.004,0.0197,0.0168,0.0224,0.0349,0.0349,0.0294,0,0,0,0,0,0,-0.0605,-0.0668,-0.0703,-0.0764,-0.0804,-0.0837,-0.0826,-0.0773,-0.0706,-0.0616,-0.0505,-0.041,-0.0215,-0.0273,-0.0012,0.0025,0.007,0.0274,0.0276,0.0349,0.0349,0.0349,0.0293,0,0,0,0,0]}]]